Flag for Romania Weather past 2 weeks in Brăila, Romania

Now
70 °F

Clear.


Feels Like: 70 °F
Forecast: 63 / 92 °F
Wind: 1 mph from East

Location: Galati

Current Time: Aug 21, 2014 at 12:21:06 AM

Latest Report: Aug 21, 2014 at 12:00 AM


Visibility: 13 mi

Pressure: 30.01 "Hg

Humidity: 69%

Dew point: 59 °F

Location of BrăilaLocation

Historic Weather in Brăila — Graph

°F

Brăila temperature yesterday

Maximum temperature yesterday: 86 °F (at 4:00 PM)
Minimum temperature yesterday: 67 °F (at 7:00 AM)
Average temperature yesterday: 76 °F

Past Weeks' High & Low Weather Summary

 TemperatureHumidityPressure
High97 °F (Aug 13, 5:00 PM)100% (Aug 16, 8:00 PM)30.05 "Hg (Aug 16, 8:00 PM)
Low58 °F (Aug 19, 6:00 AM)26% (Aug 8, 4:00 PM)29.76 "Hg (Aug 15, 5:00 PM)
Average78 °F59%29.90 "Hg
* Reported Aug 5 11:00 PM — Aug 20 11:00 PM, Brăila, Weather by CustomWeather, © 2014

Note: Actual official high and low records may vary slightly from our data, if they occured in-between our weather recording intervals... More about our weather records

Advertising

Brăila weather history for previous 24 hours

 ConditionsComfort  
Time TempWeatherWind HumidityBarometerVisibility
11:00 PM
Aug 20
71 °FPassing clouds.1 mph67%30.01 "Hg12 mi
10:00 PM73 °FPassing clouds.2 mph62%30.00 "Hg12 mi
9:00 PM76 °FPassing clouds.3 mph57%29.98 "Hg12 mi
8:00 PM81 °FScattered clouds.2 mph36%29.97 "Hg12 mi
7:00 PM82 °FScattered clouds.2 mph37%29.97 "Hg12 mi
6:00 PM83 °FScattered clouds.2 mph33%29.98 "Hg12 mi
5:00 PM86 °FPassing clouds.2 mph28%29.98 "Hg12 mi
4:00 PM86 °FPassing clouds.3 mph31%29.99 "Hg12 mi
3:00 PM85 °FPassing clouds.3 mph32%30.01 "Hg12 mi
2:00 PM84 °FPassing clouds.5 mph34%30.03 "Hg12 mi
1:00 PM83 °FPassing clouds.3 mph37%30.03 "Hg12 mi
12:00 PM81 °FSunny.3 mph37%30.04 "Hg12 mi
11:00 AM78 °FPassing clouds.2 mph48%30.05 "Hg12 mi
10:00 AM75 °FPassing clouds.2 mph56%30.05 "Hg12 mi
9:00 AM71 °FSunny.2 mph65%30.04 "Hg12 mi
8:00 AM68 °FSunny.2 mph73%30.04 "Hg12 mi
7:00 AM67 °FPassing clouds.3 mph73%30.04 "Hg12 mi
6:00 AM68 °FClear.3 mph73%30.03 "Hg12 mi
5:00 AM68 °FClear.3 mph73%30.03 "Hg12 mi
4:00 AM69 °FClear.3 mph70%30.03 "Hg12 mi
3:00 AM69 °FClear.3 mph67%30.03 "Hg12 mi
2:00 AM70 °FClear.3 mph64%30.03 "Hg12 mi
1:00 AM71 °FClear.3 mph59%30.04 "Hg12 mi
12:00 AM72 °FClear.3 mph57%30.04 "Hg12 mi
Weather by CustomWeather, © 2014

See weather overviewHow to use our weather pages